Wind_Speed
42 43 42 42 42 41 41 41 42 41 41 40 40 40 40 41 41 41 41 41 41 41 41 41 42 42 43 44 45 46 47 47 47 48 49 49 49 51 52 52 53 53 54 55
40 41 42 42 41 41 41 41 41 41 40 38 39 39 39 40 40 41 41 41 41 41 41 42 42 43 43 44 45 46 46 47 47 48 49 49 50 51 52 52 52 53 54 54
40 40 40 41 40 40 40 39 39 39 39 39 39 39 40 40 40 41 41 41 41 41 41 42 43 43 44 44 45 46 46 46 47 48 48 49 50 51 51 51 51 52 53 53
39 40 41 40 39 39 39 39 39 39 39 39 39 39 39 39 39 40 40 41 41 41 41 42 42 43 44 44 44 45 45 46 47 47 48 48 49 50 50 50 51 51 51 51
36 38 39 38 38 37 37 38 38 38 39 39 39 39 39 39 39 39 39 40 40 41 41 42 42 42 43 43 43 44 44 45 46 47 47 47 48 48 49 49 49 49 49 48
34 35 36 35 36 36 36 37 36 37 37 38 38 38 38 38 38 38 39 39 39 40 40 41 42 42 42 43 43 43 44 45 45 46 46 46 47 47 48 47 48 48 46 45
30 32 32 32 33 34 35 35 35 36 36 37 37 37 37 37 38 38 38 38 39 39 40 40 41 42 42 42 42 42 43 44 44 45 45 45 46 46 46 45 44 43 42 42
29 30 28 29 30 31 31 31 32 33 34 35 35 36 36 37 37 37 37 37 38 38 39 39 40 40 40 41 41 42 43 43 44 44 45 45 45 44 44 43 41 40 40 39
28 28 27 27 28 29 29 29 30 31 32 32 33 34 35 36 36 37 37 37 37 38 38 38 38 38 39 40 41 42 43 43 43 44 44 44 44 43 42 41 39 39 39 38
28 28 28 27 27 28 29 29 30 30 30 31 32 33 34 35 35 36 36 36 37 37 37 37 37 38 39 40 40 41 41 42 43 43 43 43 42 41 40 39 38 37 36 35
26 27 27 27 28 28 28 29 30 30 30 31 32 32 33 34 34 35 35 35 36 37 37 37 38 39 39 40 40 41 41 42 43 43 42 41 40 40 39 37 36 34 33 32
24 25 26 26 27 27 28 29 30 30 31 31 32 32 33 33 33 33 34 35 36 37 37 38 38 39 39 39 40 40 41 42 42 41 40 39 38 37 36 34 32 31 30 28
23 23 24 25 26 26 26 26 27 28 29 30 31 32 32 32 32 33 34 34 35 35 35 36 36 36 37 37 38 38 39 39 38 37 36 35 34 33 32 31 30 28 26 24
23 23 24 24 25 26 26 26 26 26 27 28 28 29 29 30 31 32 33 33 34 34 34 34 35 35 35 35 36 36 36 35 33 32 31 31 31 30 28 28 27 25 24 22
22 24 24 24 24 25 26 26 26 26 26 27 27 28 28 28 29 30 30 31 32 32 31 32 32 32 32 32 32 32 32 31 30 28 27 26 26 25 24 24 23 22 20 18
22 23 23 23 23 23 24 24 25 25 25 26 26 27 27 28 28 29 29 29 29 29 29 29 29 29 30 29 29 30 29 28 27 25 23 22 22 21 21 20 19 17 16 15
21 22 22 22 22 22 22 23 23 23 24 24 25 26 26 27 27 28 28 27 27 27 27 27 27 27 26 26 26 26 26 25 24 22 20 20 19 18 18 16 15 14 13 12
18 19 20 21 21 22 22 21 21 22 22 23 24 24 24 24 25 25 25 25 25 25 25 25 25 24 24 23 23 23 22 21 20 19 18 17 16 15 15 14 13 12 11 11
17 17 18 18 19 20 20 21 21 21 22 22 22 22 23 23 23 23 23 23 23 23 23 22 22 22 21 21 21 20 20 19 18 16 15 14 14 14 13 12 11 11 10 10
17 17 17 17 17 18 18 19 19 20 20 20 20 21 21 21 21 22 22 21 21 21 20 20 19 19 19 19 19 19 18 17 16 15 14 13 12 12 11 11 10 10 9 9
16 16 16 17 17 17 17 18 18 18 18 19 19 20 20 20 20 20 20 20 19 18 18 18 18 18 18 17 17 17 17 16 15 14 13 13 12 11 10 10 9 8 8 7
16 16 17 17 18 18 18 18 18 18 19 19 19 20 20 20 19 19 19 19 18 17 17 17 17 17 17 17 17 16 15 15 14 13 13 12 11 10 9 9 8 8 7 7
15 16 16 16 17 17 17 18 18 18 19 19 20 20 19 19 19 19 19 18 18 18 17 18 17 17 16 16 15 14 14 13 12 12 12 11 10 10 9 8 7 7 7 7
14 14 15 15 15 16 16 17 18 19 19 19 19 19 19 19 18 18 18 18 17 17 17 17 17 16 15 14 13 12 12 11 11 11 10 10 9 9 8 7 7 7 7 7
14 14 14 14 15 15 16 17 18 18 18 19 19 19 19 18 18 18 17 17 17 17 17 16 16 15 14 12 12 11 10 10 10 9 9 9 9 8 8 7 7 7 7 7
13 14 14 14 14 15 16 16 16 16 17 17 17 17 17 17 17 17 17 16 16 16 16 16 15 14 13 12 12 11 10 10 10 9 9 9 8 8 8 8 7 8 8 8
14 14 13 14 14 15 15 15 15 16 16 15 15 15 16 16 16 16 16 16 16 16 15 15 14 13 12 11 11 10 10 10 10 9 9 9 9 9 8 8 8 8 8 8
Wind_Direction
234 235 235 236 237 238 240 242 244 246 248 249 251 253 254 255 256 257 259 261 261 262 264 266 268 270 272 274 276 278 279 280 281 283 284 285 286 287 288 289 289 290 292 293
234 235 235 236 236 238 239 241 243 244 245 246 247 250 252 254 256 257 258 260 261 263 264 266 268 270 272 274 276 278 279 280 281 283 285 285 286 287 289 289 290 291 293 294
236 236 236 236 237 239 240 242 244 245 246 246 247 250 253 255 257 259 260 260 262 263 265 267 269 270 272 274 276 278 279 280 281 284 285 285 286 287 288 289 290 292 293 294
236 236 239 239 239 241 242 243 244 246 247 249 250 251 253 256 257 259 261 261 262 265 267 269 270 272 273 274 276 277 279 280 282 284 284 285 286 287 288 290 291 293 294 295
235 237 240 240 240 242 244 245 246 248 249 251 252 254 255 257 258 260 262 262 263 265 267 269 270 271 273 275 276 277 278 280 282 283 284 285 286 287 289 291 292 294 295 295
236 238 239 240 242 244 246 248 248 249 250 251 251 253 254 256 258 259 261 262 263 265 267 269 270 271 273 274 275 277 278 280 282 283 284 285 287 288 290 291 292 294 294 294
235 238 240 240 242 245 247 249 248 249 249 250 251 253 253 255 257 259 261 263 265 267 269 270 271 272 274 275 277 278 280 282 283 284 285 286 288 289 290 292 293 294 295 296
235 238 239 241 244 246 248 248 248 249 249 249 251 252 253 255 257 259 261 264 266 269 270 271 272 273 274 276 278 280 281 283 284 284 285 286 288 289 291 292 293 294 295 295
235 238 241 243 246 247 247 248 249 250 249 250 251 254 256 257 259 261 262 265 267 270 271 272 272 274 275 277 279 282 283 284 285 285 285 287 288 289 290 291 292 294 295 295
235 237 241 243 246 248 248 249 250 251 251 252 254 255 257 258 260 261 264 266 268 270 271 271 272 274 276 278 281 282 283 284 285 285 286 287 288 288 289 291 293 294 294 295
237 239 241 243 245 247 249 250 251 252 254 256 257 257 258 259 261 262 265 267 269 271 272 272 273 275 277 279 281 282 283 285 286 285 285 286 285 286 287 289 291 292 293 296
241 243 245 245 246 249 251 252 254 256 257 257 257 259 260 261 264 266 268 270 272 273 273 273 274 276 278 278 280 282 283 286 286 284 284 284 284 284 286 287 289 291 293 296
244 245 247 247 248 250 251 253 255 256 256 257 259 260 262 263 265 268 270 272 274 275 275 275 275 277 278 279 281 283 285 287 286 284 282 282 282 282 284 285 288 290 292 294
247 248 248 249 250 251 252 253 255 256 257 257 258 259 261 263 265 268 271 272 274 275 275 274 275 277 277 279 281 283 285 286 285 282 281 281 282 283 283 284 285 288 289 290
249 250 251 251 253 253 252 253 255 257 258 258 259 261 263 265 266 269 271 273 274 275 275 275 277 278 279 281 282 284 286 286 284 282 282 282 282 282 283 284 284 284 285 285
249 251 252 252 252 253 253 254 256 257 258 259 261 262 265 267 269 271 274 275 275 275 276 277 279 281 282 283 284 285 287 286 283 282 281 281 281 283 284 285 284 281 279 277
247 248 249 250 251 252 253 255 257 258 259 261 262 264 265 268 270 272 274 275 275 275 277 280 281 281 282 283 284 285 286 285 283 279 279 279 280 282 284 284 283 279 271 269
246 246 247 249 250 251 253 255 257 258 260 261 263 264 266 268 270 272 273 274 275 275 278 280 280 279 280 282 283 285 285 283 280 279 279 279 279 279 280 281 279 273 268 266
244 244 245 247 249 250 251 253 255 258 260 262 263 264 266 268 270 271 272 274 275 276 277 280 280 279 280 281 283 283 282 280 278 278 277 277 277 277 276 273 269 267 265 262
247 246 248 250 252 253 254 255 258 260 262 263 264 266 267 269 271 272 273 273 274 275 277 279 280 279 280 282 282 281 280 277 275 275 274 274 273 272 270 264 261 263 262 257
251 252 254 256 258 258 259 259 261 263 263 264 266 267 268 270 272 273 273 273 274 274 275 277 279 280 281 282 281 280 277 275 273 271 270 270 269 265 260 258 259 258 255 251
256 257 258 259 259 259 259 260 261 262 264 266 267 268 268 269 270 271 272 271 271 273 276 278 279 282 283 282 280 278 275 272 268 266 267 266 261 256 252 251 251 249 246 239
256 257 257 258 259 259 259 261 262 264 266 267 267 267 267 268 270 271 271 271 273 275 278 279 280 283 284 280 277 274 271 266 263 262 262 260 251 247 245 241 241 239 233 229
257 257 258 259 259 260 262 264 266 267 268 267 267 266 267 269 271 271 272 274 275 277 279 280 280 282 281 273 269 268 265 261 260 257 255 249 242 240 233 230 229 224 218 215
258 257 258 258 260 262 264 267 269 269 267 267 266 266 266 268 270 270 271 272 273 275 278 279 279 280 275 266 261 260 260 258 255 250 244 239 235 227 220 217 213 209 204 199
257 257 258 259 260 263 266 268 269 267 266 266 265 264 265 267 267 266 267 269 271 273 274 275 275 274 268 260 254 254 254 251 246 240 235 231 220 211 207 206 203 200 197 192
257 257 256 259 262 264 265 267 267 265 265 265 265 265 266 266 264 262 264 267 269 271 272 272 270 266 259 252 248 247 245 241 234 229 221 209 201 196 194 195 192 190 187 187
Height
5551 5555 5561 5566 5570 5574 5578 5582 5586 5591 5594 5597 5599 5601 5603 5605 5607 5610 5612 5613 5615 5616 5617 5617 5617 5617 5616 5614 5613 5611 5609 5606 5604 5600 5597 5593 5589 5585 5581 5576 5572 5567 5562 5556
5541 5545 5550 5555 5560 5564 5568 5572 5576 5579 5583 5587 5588 5590 5592 5594 5597 5599 5601 5602 5604 5605 5606 5606 5606 5605 5604 5603 5601 5599 5597 5594 5591 5588 5585 5581 5577 5573 5568 5564 5559 5554 5548 5542
5532 5536 5539 5545 5552 5555 5559 5563 5566 5569 5574 5576 5578 5580 5582 5584 5586 5588 5590 5591 5592 5593 5594 5594 5594 5593 5592 5591 5589 5587 5584 5582 5579 5576 5572 5568 5564 5560 5556 5551 5546 5541 5535 5529
5522 5527 5530 5539 5542 5545 5549 5552 5555 5559 5562 5565 5568 5570 5572 5574 5576 5577 5578 5580 5581 5581 5582 5582 5581 5581 5579 5578 5577 5575 5572 5570 5567 5564 5560 5556 5552 5547 5543 5538 5533 5528 5522 5517
5513 5517 5521 5528 5533 5536 5539 5543 5546 5549 5552 5554 5557 5559 5562 5564 5565 5566 5567 5568 5569 5570 5570 5570 5569 5568 5567 5566 5564 5562 5560 5558 5555 5552 5548 5544 5540 5535 5531 5526 5521 5515 5510 5505
5505 5509 5513 5520 5523 5526 5529 5533 5536 5539 5541 5544 5546 5550 5553 5553 5554 5555 5556 5557 5558 5558 5558 5558 5557 5556 5555 5554 5552 5550 5548 5546 5543 5539 5536 5532 5528 5523 5519 5514 5509 5504 5499 5493
5497 5501 5505 5511 5513 5516 5522 5524 5527 5529 5531 5534 5536 5539 5541 5542 5544 5545 5545 5546 5546 5547 5546 5546 5545 5544 5543 5542 5540 5539 5536 5534 5531 5527 5524 5520 5516 5512 5507 5503 5498 5494 5489 5484
5490 5494 5500 5502 5505 5509 5511 5513 5516 5518 5521 5524 5526 5528 5530 5531 5533 5534 5535 5535 5535 5535 5535 5534 5533 5533 5532 5530 5529 5527 5525 5522 5519 5516 5512 5508 5505 5500 5496 5492 5488 5484 5480 5475
5484 5489 5491 5493 5496 5499 5501 5504 5506 5509 5511 5514 5516 5518 5519 5521 5522 5523 5524 5524 5524 5524 5524 5523 5522 5521 5520 5519 5517 5516 5513 5510 5507 5504 5500 5497 5493 5490 5486 5482 5478 5474 5470 5466
5476 5479 5482 5485 5488 5490 5493 5495 5497 5500 5502 5504 5506 5508 5509 5511 5512 5513 5513 5514 5514 5513 5513 5512 5511 5510 5509 5508 5506 5504 5502 5499 5496 5493 5489 5486 5483 5479 5476 5472 5469 5465 5461 5458
5468 5472 5474 5477 5480 5482 5484 5486 5489 5491 5493 5494 5496 5498 5499 5500 5501 5502 5503 5503 5503 5503 5502 5501 5500 5499 5498 5497 5495 5493 5490 5487 5484 5481 5478 5475 5472 5469 5466 5463 5459 5456 5453 5449
5461 5464 5467 5470 5472 5474 5476 5478 5480 5482 5483 5484 5486 5488 5489 5490 5491 5492 5492 5492 5492 5492 5491 5490 5489 5488 5487 5485 5484 5482 5479 5476 5473 5470 5468 5465 5462 5460 5456 5454 5451 5448 5444 5441
5454 5457 5459 5462 5464 5465 5467 5469 5470 5472 5474 5475 5476 5478 5479 5480 5481 5481 5482 5482 5481 5481 5480 5479 5479 5477 5476 5474 5473 5471 5468 5465 5462 5460 5457 5455 5453 5451 5449 5446 5443 5440 5437 5434
5447 5450 5452 5454 5456 5458 5459 5461 5462 5463 5464 5466 5467 5468 5469 5470 5470 5471 5471 5471 5471 5470 5470 5469 5468 5467 5465 5464 5462 5460 5458 5455 5452 5450 5448 5446 5444 5442 5440 5438 5436 5433 5431 5428
5441 5443 5445 5447 5448 5450 5451 5452 5454 5455 5456 5457 5458 5459 5460 5461 5461 5461 5461 5461 5461 5460 5460 5459 5458 5457 5455 5454 5452 5450 5448 5446 5443 5441 5440 5438 5436 5434 5432 5431 5429 5427 5425 5423
5434 5435 5437 5439 5440 5442 5443 5444 5446 5447 5448 5449 5450 5450 5451 5452 5452 5452 5452 5452 5451 5451 5450 5450 5449 5447 5446 5444 5443 5441 5439 5437 5435 5433 5432 5430 5429 5427 5426 5424 5422 5421 5419 5418
5427 5428 5430 5431 5433 5434 5436 5437 5438 5439 5440 5441 5441 5442 5443 5443 5443 5443 5443 5443 5442 5442 5441 5441 5440 5438 5437 5436 5434 5433 5431 5429 5428 5426 5425 5424 5423 5421 5420 5418 5417 5416 5415 5414
5420 5422 5423 5425 5426 5427 5428 5429 5431 5431 5432 5433 5434 5434 5434 5435 5435 5435 5435 5434 5434 5434 5433 5432 5431 5430 5430 5428 5427 5425 5424 5422 5421 5420 5419 5418 5417 5416 5415 5413 5412 5412 5411 5411
5414 5416 5417 5418 5419 5420 5421 5422 5423 5424 5425 5425 5426 5426 5427 5427 5427 5427 5427 5427 5426 5426 5426 5425 5424 5423 5422 5421 5420 5419 5417 5416 5415 5414 5413 5413 5412 5411 5410 5409 5408 5408 5407 5407
5409 5410 5411 5412 5413 5414 5415 5416 5417 5417 5418 5418 5419 5419 5420 5420 5420 5420 5420 5419 5419 5419 5418 5418 5417 5416 5415 5414 5413 5412 5411 5410 5410 5409 5408 5408 5407 5407 5406 5405 5405 5404 5404 5403
5403 5404 5405 5406 5407 5408 5409 5410 5410 5411 5411 5412 5412 5412 5413 5413 5413 5413 5413 5413 5412 5412 5412 5411 5411 5410 5409 5408 5407 5406 5405 5405 5404 5404 5403 5403 5403 5403 5402 5402 5401 5401 5401 5400
5398 5399 5400 5401 5401 5402 5403 5404 5404 5405 5405 5405 5406 5406 5406 5406 5406 5406 5406 5406 5406 5406 5405 5405 5404 5404 5403 5402 5401 5400 5400 5399 5399 5399 5399 5399 5399 5399 5399 5399 5398 5398 5398 5398
5393 5393 5394 5395 5395 5396 5397 5397 5398 5398 5399 5399 5399 5399 5399 5399 5399 5400 5400 5400 5399 5399 5399 5399 5398 5398 5397 5396 5396 5395 5395 5394 5394 5394 5394 5394 5395 5395 5395 5395 5395 5395 5395 5396
5387 5388 5388 5389 5389 5390 5391 5391 5392 5392 5392 5392 5392 5392 5393 5393 5393 5393 5393 5393 5393 5393 5393 5392 5392 5392 5391 5391 5390 5390 5390 5390 5390 5390 5390 5391 5391 5392 5392 5392 5393 5393 5393 5394
5382 5383 5383 5384 5384 5385 5385 5385 5385 5385 5385 5385 5386 5386 5386 5386 5386 5386 5386 5386 5387 5387 5387 5386 5386 5386 5386 5386 5386 5386 5386 5386 5386 5386 5387 5387 5388 5389 5390 5390 5391 5391 5392 5393
5377 5378 5378 5378 5379 5379 5379 5379 5379 5379 5379 5379 5379 5379 5379 5379 5379 5380 5380 5380 5380 5381 5381 5381 5380 5380 5380 5381 5381 5381 5382 5382 5382 5383 5383 5384 5385 5386 5387 5388 5389 5390 5391 5392
5372 5372 5373 5373 5373 5373 5374 5373 5373 5373 5373 5373 5373 5373 5373 5373 5373 5373 5374 5374 5374 5375 5375 5375 5375 5375 5375 5376 5376 5377 5377 5378 5379 5379 5380 5382 5383 5384 5385 5386 5387 5388 5389 5391